Location: Bukit Nyuki
(2.5885°N, 113.7476°E)
Time: 17:15:50
(UTC+00:00)

Cosmos 1844 - Pass Details

Date: 18 May 2021
Orbit: 824 x 866 km, 70.9° (Epoch: 20 June)

Event Time Altitude Azimuth Distance (km) Brightness Sun altitude
Rises 21:29:12 0° 345° (NNW) 3,344 6.9 -11.4°
Reaches altitude 10° 21:31:37 10° 345° (NNW) 2,415 6.2 -10.8°
Maximum altitude 21:37:09 88° 73° (ENE) 832 3.7 -9.5°
Drops below altitude 10° 21:42:45 10° 164° (SSE) 2,441 6.1 -8.2°
Sets 21:45:12 0° 164° (SSE) 3,383 6.8 -7.6°
